Location: Biltmore Gardens
(41.6070°N, 83.4666°W)
Time: 13:38:23
(UTC+00:00)

CZ-2C R/B - Pass Details

Date: 14 July 2020
Orbit: 503 x 566 km, 97.7° (Epoch: 04 August)

Event Time Altitude Azimuth Distance (km) Brightness Sun altitude
Rises 08:33:48 0° 19° (NNE) 2,774 7.7 -15.1°
Reaches altitude 10° 08:36:03 10° 26° (NNE) 1,872 6.8 -14.8°
Maximum altitude 08:39:55 42° 99° (E) 807 3.9 -14.3°
Drops below altitude 10° 08:43:44 10° 171° (S) 1,843 5.1 -13.8°
Enters shadow 08:43:53 - 172° (S) 1,903 5.2 -13.8°
